| time (UTC) | temp F | wind direction | speed knots | gust knots | rain 1hr in | rain 24hr in | rain mn in | humidity % | barometer mb |
| 20260505170539 | 80 | 190 | 2.6 | 4.3 | 0.00 | 0.00 | 0.00 | 79 | 1008.1 |
| 20260505170036 | 80 | 123 | 0.0 | 0.9 | 0.00 | 0.00 | 0.00 | 80 | 1008.3 |
| 20260505165531 | 80 | 258 | 1.7 | 4.3 | 0.00 | 0.00 | 0.00 | 80 | 1008.1 |
| 20260505165027 | 80 | 210 | 0.0 | 0.0 | 0.00 | 0.00 | 0.00 | 80 | 1008.2 |
| 20260505164523 | 80 | 252 | 0.9 | 1.7 | 0.00 | 0.00 | 0.00 | 80 | 1008.4 |
| 20260505164021 | 80 | 230 | 2.6 | 4.3 | 0.00 | 0.00 | 0.00 | 80 | 1008.1 |
| 20260505163519 | 79 | 246 | 0.9 | 2.6 | 0.00 | 0.00 | 0.00 | 81 | 1008.3 |
| 20260505163015 | 78 | 220 | 2.6 | 2.6 | 0.00 | 0.00 | 0.00 | 82 | 1008.2 |
| 20260505162509 | 78 | 267 | 3.5 | 4.3 | 0.00 | 0.00 | 0.00 | 82 | 1008.3 |
| 20260505162006 | 78 | 166 | 2.6 | 2.6 | 0.00 | 0.00 | 0.00 | 82 | 1008.3 |
| 20260505161503 | 78 | 198 | 1.7 | 1.7 | 0.00 | 0.00 | 0.00 | 82 | 1008.3 |
| 20260505161000 | 78 | 234 | 0.0 | 0.9 | 0.00 | 0.00 | 0.00 | 81 | 1008.4 |
| 20260505160458 | 78 | 234 | 0.9 | 1.7 | 0.00 | 0.00 | 0.00 | 82 | 1008.2 |
| 20260505152934 | 77 | 288 | 0.9 | 1.7 | 0.00 | 0.00 | 0.00 | 83 | 1008.1 |
| 20260505152431 | 77 | 166 | 0.0 | 0.9 | 0.00 | 0.00 | 0.00 | 83 | 1007.9 |
| 20260505151926 | 77 | 158 | 1.7 | 1.7 | 0.00 | 0.00 | 0.00 | 83 | 1007.9 |
| 20260505151422 | 77 | 233 | 3.5 | 5.2 | 0.00 | 0.00 | 0.00 | 83 | 1008.0 |
| 20260505150920 | 77 | 169 | 0.9 | 0.9 | 0.00 | 0.00 | 0.00 | 83 | 1007.9 |
| 20260505150416 | 77 | 158 | 0.9 | 2.6 | 0.00 | 0.00 | 0.00 | 83 | 1007.8 |
| 20260505140340 | 74 | 268 | 0.9 | 1.7 | 0.00 | 0.00 | 0.00 | 87 | 1007.9 |
| 20260505130304 | 73 | 204 | 2.6 | 4.3 | 0.00 | 0.00 | 0.00 | 88 | 1007.9 |
| 20260505124754 | 73 | 184 | 0.9 | 0.9 | 0.00 | 0.00 | 0.00 | 88 | 1007.6 |
| 20260505124251 | 73 | 231 | 0.0 | 0.9 | 0.00 | 0.00 | 0.00 | 89 | 1007.6 |
| 20260505123746 | 73 | 147 | 0.0 | 0.0 | 0.00 | 0.00 | 0.00 | 89 | 1007.2 |
| 20260505123244 | 72 | 153 | 0.9 | 1.7 | 0.00 | 0.00 | 0.00 | 89 | 1007.2 |
| 20260505122740 | 72 | 140 | 0.0 | 0.9 | 0.00 | 0.00 | 0.00 | 89 | 1006.9 |
| 20260505122237 | 72 | 151 | 0.0 | 0.9 | 0.00 | 0.00 | 0.00 | 89 | 1007.3 |
| 20260505121734 | 72 | 181 | 0.0 | 0.9 | 0.00 | 0.00 | 0.00 | 89 | 1007.2 |
| 20260505121231 | 72 | 153 | 0.0 | 0.9 | 0.00 | 0.00 | 0.00 | 89 | 1007.3 |
| 20260505120727 | 72 | 135 | 0.0 | 1.7 | 0.00 | 0.00 | 0.00 | 89 | 1007.4 |
| 20260505120223 | 72 | 129 | 0.0 | 0.0 | 0.00 | 0.00 | 0.00 | 89 | 1007.2 |
| 20260505115721 | 72 | 142 | 0.0 | 0.9 | 0.00 | 0.00 | 0.00 | 88 | 1007.3 |
| 20260505115219 | 72 | 170 | 0.9 | 0.9 | 0.00 | 0.00 | 0.00 | 88 | 1007.1 |
| 20260505114717 | 72 | 148 | 0.0 | 0.0 | 0.00 | 0.00 | 0.00 | 88 | 1007.4 |
| 20260505114213 | 72 | 204 | 1.7 | 2.6 | 0.00 | 0.00 | 0.00 | 88 | 1007.0 |
| 20260505113709 | 72 | 158 | 0.0 | 1.7 | 0.00 | 0.00 | 0.00 | 88 | 1007.1 |
| 20260505113206 | 72 | 166 | 1.7 | 4.3 | 0.00 | 0.00 | 0.00 | 88 | 1007.1 |
| 20260505112702 | 72 | 146 | 0.0 | 0.0 | 0.00 | 0.00 | 0.00 | 88 | 1007.1 |
| 20260505112200 | 72 | 162 | 0.0 | 0.0 | 0.00 | 0.00 | 0.00 | 88 | 1007.2 |
| 20260505111700 | 72 | 105 | 0.0 | 0.9 | 0.00 | 0.00 | 0.00 | 88 | 1007.2 |
| 20260505111156 | 72 | 204 | 0.0 | 0.9 | 0.00 | 0.00 | 0.00 | 88 | 1007.0 |
| 20260505110652 | 72 | 168 | 0.0 | 0.0 | 0.00 | 0.00 | 0.00 | 88 | 1007.1 |
| 20260505110149 | 72 | 211 | 0.0 | 0.0 | 0.00 | 0.00 | 0.00 | 88 | 1007.1 |
| 20260505102125 | 71 | 163 | 0.0 | 0.0 | 0.00 | 0.00 | 0.00 | 88 | 1007.1 |
| 20260505101624 | 71 | 140 | 0.0 | 0.0 | 0.00 | 0.00 | 0.00 | 88 | 1007.0 |
| 20260505101120 | 71 | 156 | 0.0 | 0.9 | 0.00 | 0.00 | 0.00 | 88 | 1007.3 |
| 20260505100616 | 71 | 203 | 0.0 | 0.9 | 0.00 | 0.00 | 0.00 | 88 | 1007.5 |
| 20260505100113 | 71 | 240 | 1.7 | 1.7 | 0.00 | 0.00 | 0.00 | 88 | 1007.5 |
| 20260505095609 | 71 | 173 | 0.0 | 0.0 | 0.00 | 0.00 | 0.00 | 88 | 1007.8 |
| 20260505095106 | 71 | 129 | 0.9 | 2.6 | 0.00 | 0.00 | 0.00 | 88 | 1007.6 |
| 20260505094602 | 71 | 156 | 0.0 | 0.0 | 0.00 | 0.00 | 0.00 | 87 | 1007.2 |
| 20260505094058 | 71 | 165 | 0.0 | 0.0 | 0.00 | 0.00 | 0.00 | 87 | 1007.2 |
| 20260505093555 | 71 | 176 | 0.0 | 0.9 | 0.00 | 0.00 | 0.00 | 87 | 1007.4 |
| 20260505093053 | 71 | 33 | 0.0 | 0.0 | 0.00 | 0.00 | 0.00 | 87 | 1007.3 |
| 20260505092550 | 71 | 10 | 0.9 | 0.9 | 0.00 | 0.00 | 0.00 | 87 | 1007.4 |
| 20260505092048 | 71 | 163 | 0.0 | 0.0 | 0.00 | 0.00 | 0.00 | 87 | 1007.5 |
| 20260505091544 | 71 | 189 | 0.0 | 0.0 | 0.00 | 0.00 | 0.00 | 87 | 1007.6 |
| 20260505091043 | 71 | 197 | 0.9 | 2.6 | 0.00 | 0.00 | 0.00 | 87 | 1007.4 |
| 20260505090541 | 71 | 172 | 0.9 | 1.7 | 0.00 | 0.00 | 0.00 | 87 | 1007.4 |
| 20260505090038 | 71 | 156 | 0.0 | 0.0 | 0.00 | 0.00 | 0.00 | 87 | 1007.6 |
| 20260505085536 | 71 | 206 | 0.0 | 0.0 | 0.00 | 0.00 | 0.00 | 87 | 1007.8 |
| 20260505085034 | 71 | 158 | 0.0 | 0.0 | 0.00 | 0.00 | 0.00 | 87 | 1007.7 |
| 20260505084532 | 71 | 176 | 0.0 | 0.0 | 0.00 | 0.00 | 0.00 | 86 | 1007.7 |
| 20260505084030 | 71 | 148 | 0.0 | 0.0 | 0.00 | 0.00 | 0.00 | 86 | 1007.8 |
| 20260505083526 | 71 | 151 | 0.0 | 0.0 | 0.00 | 0.00 | 0.00 | 86 | 1007.7 |
| 20260505083023 | 71 | 281 | 0.0 | 0.0 | 0.00 | 0.00 | 0.00 | 86 | 1007.6 |
| 20260505082519 | 71 | 171 | 0.0 | 1.7 | 0.00 | 0.00 | 0.00 | 86 | 1008.1 |
| 20260505082016 | 71 | 154 | 0.9 | 1.7 | 0.00 | 0.00 | 0.00 | 86 | 1007.9 |
| 20260505081512 | 71 | 176 | 0.0 | 0.9 | 0.00 | 0.00 | 0.00 | 86 | 1007.7 |
| 20260505081009 | 71 | 167 | 0.0 | 0.0 | 0.00 | 0.00 | 0.00 | 86 | 1007.6 |
| 20260505080506 | 71 | 272 | 0.0 | 0.9 | 0.00 | 0.00 | 0.00 | 85 | 1008.0 |
| 20260505080002 | 71 | 308 | 0.0 | 0.9 | 0.00 | 0.00 | 0.00 | 85 | 1008.0 |
| 20260505075458 | 71 | 154 | 0.0 | 0.9 | 0.00 | 0.00 | 0.00 | 86 | 1007.8 |
| 20260505074955 | 71 | 156 | 0.0 | 0.0 | 0.00 | 0.00 | 0.00 | 86 | 1007.9 |
| 20260505074453 | 71 | 158 | 0.0 | 0.0 | 0.00 | 0.00 | 0.00 | 85 | 1008.1 |
| 20260505073949 | 71 | 150 | 0.0 | 0.0 | 0.00 | 0.00 | 0.00 | 85 | 1008.1 |
| 20260505073447 | 71 | 144 | 0.0 | 0.0 | 0.00 | 0.00 | 0.00 | 85 | 1008.2 |
| 20260505072944 | 71 | 147 | 0.9 | 1.7 | 0.00 | 0.00 | 0.00 | 85 | 1008.1 |
| 20260505072440 | 71 | 153 | 0.0 | 0.0 | 0.00 | 0.00 | 0.00 | 85 | 1008.3 |
| 20260505071936 | 71 | 210 | 0.0 | 0.0 | 0.00 | 0.00 | 0.00 | 85 | 1008.3 |
| 20260505071432 | 71 | 300 | 0.0 | 0.9 | 0.00 | 0.00 | 0.00 | 85 | 1008.6 |
| 20260505070931 | 71 | 163 | 0.0 | 0.0 | 0.00 | 0.00 | 0.00 | 85 | 1008.7 |
| 20260505070427 | 71 | 174 | 0.0 | 0.9 | 0.00 | 0.00 | 0.00 | 84 | 1008.8 |
| 20260505065923 | 71 | 155 | 0.0 | 0.0 | 0.00 | 0.00 | 0.00 | 84 | 1008.8 |
| 20260505065419 | 71 | 171 | 0.0 | 0.0 | 0.00 | 0.00 | 0.00 | 84 | 1008.6 |
| 20260505064916 | 71 | 152 | 0.0 | 0.0 | 0.00 | 0.00 | 0.00 | 84 | 1008.7 |
| 20260505064414 | 71 | 157 | 0.0 | 0.0 | 0.00 | 0.00 | 0.00 | 84 | 1008.7 |
| 20260505063912 | 71 | 177 | 3.5 | 4.3 | 0.00 | 0.00 | 0.00 | 84 | 1008.5 |
| 20260505063408 | 71 | 170 | 0.0 | 0.0 | 0.00 | 0.00 | 0.00 | 84 | 1008.6 |
| 20260505062904 | 71 | 169 | 0.0 | 0.9 | 0.00 | 0.00 | 0.00 | 84 | 1008.6 |
| 20260505062402 | 71 | 152 | 0.0 | 0.0 | 0.00 | 0.00 | 0.00 | 83 | 1008.7 |
| 20260505061858 | 71 | 173 | 0.0 | 0.0 | 0.00 | 0.00 | 0.00 | 83 | 1008.8 |
| 20260505061356 | 71 | 147 | 0.0 | 0.0 | 0.00 | 0.00 | 0.00 | 83 | 1009.0 |
| 20260505060854 | 71 | 164 | 0.9 | 1.7 | 0.00 | 0.00 | 0.00 | 83 | 1009.0 |
| 20260505060350 | 71 | 144 | 0.0 | 0.0 | 0.00 | 0.00 | 0.00 | 82 | 1008.9 |
| 20260505055847 | 71 | 169 | 0.0 | 0.0 | 0.00 | 0.00 | 0.00 | 82 | 1009.1 |
| 20260505055342 | 71 | 179 | 0.0 | 0.9 | 0.00 | 0.00 | 0.00 | 82 | 1008.7 |
| 20260505054840 | 71 | 207 | 2.6 | 4.3 | 0.00 | 0.00 | 0.00 | 82 | 1008.8 |
| 20260505054337 | 71 | 160 | 0.0 | 0.0 | 0.00 | 0.00 | 0.00 | 82 | 1009.0 |
| 20260505053835 | 71 | 207 | 0.0 | 0.0 | 0.00 | 0.00 | 0.00 | 82 | 1008.9 |
| 20260505053332 | 72 | 142 | 0.0 | 0.0 | 0.00 | 0.00 | 0.00 | 81 | 1009.1 |
| 20260505052829 | 72 | 188 | 0.0 | 0.0 | 0.00 | 0.00 | 0.00 | 81 | 1009.2 |
| 20260505052326 | 72 | 186 | 0.0 | 0.9 | 0.00 | 0.00 | 0.00 | 81 | 1008.9 |
| 20260505051823 | 72 | 169 | 0.0 | 0.9 | 0.00 | 0.00 | 0.00 | 81 | 1009.1 |
| 20260505051320 | 72 | 189 | 0.9 | 0.9 | 0.00 | 0.00 | 0.00 | 81 | 1009.2 |
| 20260505050818 | 72 | 165 | 0.0 | 0.0 | 0.00 | 0.00 | 0.00 | 81 | 1009.3 |
| 20260505050317 | 72 | 163 | 0.0 | 0.0 | 0.00 | 0.00 | 0.00 | 81 | 1009.3 |
| 20260505041746 | 72 | 153 | 0.9 | 1.7 | 0.00 | 0.00 | 0.00 | 80 | 1009.0 |
| 20260505041243 | 72 | 185 | 0.0 | 0.0 | 0.00 | 0.00 | 0.00 | 80 | 1009.2 |
| 20260505040741 | 72 | 164 | 0.0 | 0.0 | 0.00 | 0.00 | 0.00 | 79 | 1009.0 |
| 20260505040238 | 72 | 161 | 0.0 | 0.0 | 0.00 | 0.00 | 0.00 | 79 | 1009.2 |
| 20260505035735 | 73 | 153 | 0.0 | 0.0 | 0.00 | 0.00 | 0.00 | 79 | 1009.3 |
| 20260505035231 | 73 | 156 | 0.9 | 1.7 | 0.00 | 0.00 | 0.00 | 79 | 1009.1 |
| 20260505034728 | 73 | 153 | 0.0 | 0.0 | 0.00 | 0.00 | 0.00 | 79 | 1009.4 |
| 20260505034224 | 73 | 49 | 0.0 | 0.0 | 0.00 | 0.00 | 0.00 | 78 | 1009.3 |
| 20260505033721 | 73 | 153 | 0.0 | 0.0 | 0.00 | 0.00 | 0.00 | 78 | 1009.2 |
| 20260505033219 | 73 | 152 | 0.0 | 0.0 | 0.00 | 0.00 | 0.00 | 78 | 1009.3 |
| 20260505032717 | 74 | 196 | 0.0 | 0.9 | 0.00 | 0.00 | 0.00 | 77 | 1009.2 |
| 20260505032212 | 74 | 188 | 0.9 | 0.9 | 0.00 | 0.00 | 0.00 | 77 | 1009.3 |
| 20260505031710 | 74 | 117 | 0.9 | 1.7 | 0.00 | 0.00 | 0.00 | 77 | 1009.5 |
| 20260505031206 | 74 | 169 | 2.6 | 4.3 | 0.00 | 0.00 | 0.00 | 77 | 1009.3 |
| 20260505030703 | 74 | 157 | 0.0 | 0.9 | 0.00 | 0.00 | 0.00 | 77 | 1009.2 |
| 20260505030159 | 74 | 162 | 0.0 | 0.0 | 0.00 | 0.00 | 0.00 | 76 | 1009.3 |
| 20260505025655 | 74 | 187 | 0.0 | 0.0 | 0.00 | 0.00 | 0.00 | 76 | 1009.5 |
| 20260505025154 | 74 | 158 | 2.6 | 5.2 | 0.00 | 0.00 | 0.00 | 76 | 1009.3 |
| 20260505024651 | 74 | 117 | 4.3 | 7.0 | 0.00 | 0.00 | 0.00 | 76 | 1009.1 |
| 20260505024148 | 74 | 153 | 0.0 | 0.0 | 0.00 | 0.00 | 0.00 | 76 | 1009.1 |
| 20260505023646 | 74 | 149 | 0.0 | 0.9 | 0.00 | 0.00 | 0.00 | 76 | 1009.1 |
| 20260505023143 | 75 | 170 | 0.0 | 0.0 | 0.00 | 0.00 | 0.00 | 76 | 1009.1 |
| 20260505022640 | 75 | 162 | 0.0 | 0.0 | 0.00 | 0.00 | 0.00 | 76 | 1009.0 |
| 20260505022137 | 75 | 168 | 0.9 | 1.7 | 0.00 | 0.00 | 0.00 | 76 | 1009.0 |
| 20260505021634 | 75 | 142 | 0.0 | 0.0 | 0.00 | 0.00 | 0.00 | 76 | 1009.3 |
| 20260505021131 | 75 | 125 | 0.0 | 0.9 | 0.00 | 0.00 | 0.00 | 76 | 1009.0 |
| 20260505020626 | 75 | 147 | 0.9 | 0.9 | 0.00 | 0.00 | 0.00 | 75 | 1009.2 |
| 20260505020122 | 75 | 151 | 0.0 | 0.0 | 0.00 | 0.00 | 0.00 | 75 | 1009.0 |
| 20260505015620 | 75 | 161 | 0.0 | 0.0 | 0.00 | 0.00 | 0.00 | 75 | 1009.0 |
| 20260505015116 | 75 | 176 | 0.9 | 1.7 | 0.00 | 0.00 | 0.00 | 75 | 1009.0 |
| 20260505014613 | 75 | 280 | 0.9 | 1.7 | 0.00 | 0.00 | 0.00 | 75 | 1008.8 |
| 20260505014110 | 75 | 187 | 0.9 | 0.9 | 0.00 | 0.00 | 0.00 | 74 | 1008.9 |
| 20260505013608 | 76 | 151 | 0.0 | 0.0 | 0.00 | 0.00 | 0.00 | 74 | 1008.7 |
| 20260505013104 | 76 | 240 | 0.9 | 0.9 | 0.00 | 0.00 | 0.00 | 73 | 1008.8 |
| 20260505012603 | 76 | 149 | 0.9 | 1.7 | 0.00 | 0.00 | 0.00 | 73 | 1008.5 |
| 20260505012059 | 76 | 98 | 0.0 | 0.0 | 0.00 | 0.00 | 0.00 | 73 | 1008.5 |
| 20260505011554 | 76 | 149 | 0.9 | 1.7 | 0.00 | 0.00 | 0.00 | 73 | 1008.5 |
| 20260505011052 | 77 | 152 | 0.0 | 0.9 | 0.00 | 0.00 | 0.00 | 72 | 1008.6 |
| 20260505010547 | 77 | 172 | 0.0 | 0.0 | 0.00 | 0.00 | 0.00 | 72 | 1008.5 |
| 20260505010044 | 77 | 163 | 0.0 | 0.9 | 0.00 | 0.00 | 0.00 | 72 | 1008.6 |
| 20260505005540 | 77 | 156 | 0.0 | 0.9 | 0.00 | 0.00 | 0.00 | 72 | 1008.5 |
| 20260505005038 | 77 | 168 | 0.9 | 0.9 | 0.00 | 0.00 | 0.00 | 71 | 1008.9 |
| 20260505004535 | 77 | 178 | 0.0 | 0.0 | 0.00 | 0.00 | 0.00 | 71 | 1008.8 |
| 20260505004032 | 77 | 227 | 1.7 | 1.7 | 0.00 | 0.00 | 0.00 | 71 | 1008.7 |
| 20260505003529 | 77 | 217 | 0.0 | 0.0 | 0.00 | 0.00 | 0.00 | 70 | 1008.7 |
| 20260505003026 | 78 | 212 | 0.0 | 0.9 | 0.00 | 0.00 | 0.00 | 70 | 1008.6 |
| 20260505002521 | 78 | 193 | 2.6 | 2.6 | 0.00 | 0.00 | 0.00 | 70 | 1008.6 |
| 20260505002020 | 78 | 137 | 0.0 | 0.0 | 0.00 | 0.00 | 0.00 | 69 | 1008.6 |
| 20260505001517 | 78 | 151 | 0.9 | 4.3 | 0.00 | 0.00 | 0.00 | 69 | 1008.6 |
| 20260505001014 | 78 | 162 | 0.9 | 2.6 | 0.00 | 0.00 | 0.00 | 69 | 1008.7 |
| 20260505000512 | 78 | 158 | 0.0 | 0.9 | 0.00 | 0.00 | 0.00 | 68 | 1008.8 |
| 20260505000009 | 78 | 140 | 1.7 | 1.7 | 0.00 | 0.00 | 0.00 | 68 | 1008.8 |
| 20260504235506 | 79 | 169 | 2.6 | 6.1 | 0.00 | 0.00 | 0.00 | 66 | 1008.6 |
| 20260504235002 | 80 | 153 | 0.0 | 0.0 | 0.00 | 0.00 | 0.00 | 67 | 1008.6 |
| 20260504234459 | 80 | 172 | 0.9 | 0.9 | 0.00 | 0.00 | 0.00 | 66 | 1008.8 |
| 20260504233956 | 80 | 159 | 0.0 | 0.9 | 0.00 | 0.00 | 0.00 | 66 | 1008.7 |
| 20260504233451 | 80 | 204 | 0.0 | 0.0 | 0.00 | 0.00 | 0.00 | 66 | 1008.7 |
| 20260504232949 | 80 | 261 | 1.7 | 1.7 | 0.00 | 0.00 | 0.00 | 66 | 1008.8 |
| 20260504232446 | 80 | 297 | 0.0 | 1.7 | 0.00 | 0.00 | 0.00 | 65 | 1008.9 |
| 20260504231943 | 80 | 227 | 0.9 | 0.9 | 0.00 | 0.00 | 0.00 | 65 | 1008.8 |
| 20260504231439 | 80 | 202 | 2.6 | 4.3 | 0.00 | 0.00 | 0.00 | 64 | 1009.0 |
| 20260504230935 | 81 | 203 | 2.6 | 4.3 | 0.00 | 0.00 | 0.00 | 64 | 1009.0 |
| 20260504230432 | 81 | 146 | 0.0 | 0.9 | 0.00 | 0.00 | 0.00 | 64 | 1009.2 |
| 20260504225932 | 81 | 156 | 0.9 | 1.7 | 0.00 | 0.00 | 0.00 | 63 | 1009.3 |
| 20260504225428 | 80 | 173 | 0.0 | 1.7 | 0.00 | 0.00 | 0.00 | 63 | 1009.1 |
| 20260504224925 | 81 | 242 | 0.9 | 2.6 | 0.00 | 0.00 | 0.00 | 64 | 1009.3 |
| 20260504224422 | 82 | 195 | 0.9 | 2.6 | 0.00 | 0.00 | 0.00 | 63 | 1009.2 |
| 20260504223919 | 81 | 153 | 0.0 | 0.0 | 0.00 | 0.00 | 0.00 | 63 | 1009.2 |
| 20260504223414 | 81 | 249 | 1.7 | 1.7 | 0.00 | 0.00 | 0.00 | 62 | 1009.3 |
| 20260504222910 | 81 | 258 | 0.9 | 2.6 | 0.00 | 0.00 | 0.00 | 61 | 1009.4 |
| 20260504222408 | 80 | 201 | 2.6 | 2.6 | 0.00 | 0.00 | 0.00 | 63 | 1009.6 |
| 20260504221906 | 81 | 138 | 0.0 | 0.0 | 0.00 | 0.00 | 0.00 | 62 | 1009.4 |
| 20260504221402 | 81 | 214 | 2.6 | 2.6 | 0.00 | 0.00 | 0.00 | 61 | 1009.6 |
| 20260504220900 | 81 | 245 | 0.0 | 0.9 | 0.00 | 0.00 | 0.00 | 62 | 1009.4 |
| 20260504220356 | 81 | 167 | 0.0 | 0.0 | 0.00 | 0.00 | 0.00 | 61 | 1009.7 |
| 20260504215853 | 81 | 170 | 1.7 | 1.7 | 0.00 | 0.00 | 0.00 | 61 | 1009.8 |
| 20260504215349 | 81 | 156 | 0.0 | 0.0 | 0.00 | 0.00 | 0.00 | 62 | 1009.7 |
| 20260504214846 | 81 | 196 | 0.0 | 0.0 | 0.00 | 0.00 | 0.00 | 61 | 1009.7 |
| 20260504214343 | 82 | 154 | 2.6 | 4.3 | 0.00 | 0.00 | 0.00 | 60 | 1009.8 |
| 20260504213839 | 81 | 153 | 1.7 | 4.3 | 0.00 | 0.00 | 0.00 | 61 | 1010.0 |
| 20260504213335 | 82 | 169 | 1.7 | 2.6 | 0.00 | 0.00 | 0.00 | 60 | 1010.1 |
| 20260504212833 | 83 | 162 | 0.0 | 0.0 | 0.00 | 0.00 | 0.00 | 58 | 1010.0 |
| 20260504212329 | 83 | 169 | 0.0 | 0.0 | 0.00 | 0.00 | 0.00 | 57 | 1010.0 |
| 20260504211827 | 83 | 158 | 0.0 | 0.0 | 0.00 | 0.00 | 0.00 | 59 | 1010.2 |
| 20260504211322 | 82 | 169 | 0.0 | 0.0 | 0.00 | 0.00 | 0.00 | 59 | 1010.2 |
| 20260504210820 | 84 | 205 | 1.7 | 2.6 | 0.00 | 0.00 | 0.00 | 58 | 1010.4 |
| 20260504210317 | 84 | 241 | 0.9 | 1.7 | 0.00 | 0.00 | 0.00 | 58 | 1010.5 |
| 20260504205814 | 83 | 153 | 2.6 | 4.3 | 0.00 | 0.00 | 0.00 | 59 | 1010.6 |
| 20260504205312 | 82 | 174 | 0.9 | 0.9 | 0.00 | 0.00 | 0.00 | 59 | 1010.6 |
| 20260504204810 | 82 | 175 | 0.0 | 0.9 | 0.00 | 0.00 | 0.00 | 59 | 1010.7 |
| 20260504204308 | 82 | 265 | 0.0 | 1.7 | 0.00 | 0.00 | 0.00 | 58 | 1010.8 |
| 20260504203807 | 83 | 153 | 2.6 | 2.6 | 0.00 | 0.00 | 0.00 | 57 | 1010.8 |
| 20260504203304 | 84 | 256 | 0.9 | 1.7 | 0.00 | 0.00 | 0.00 | 56 | 1011.1 |
| 20260504202758 | 82 | 160 | 0.9 | 1.7 | 0.00 | 0.00 | 0.00 | 58 | 1011.1 |
| 20260504202256 | 84 | 166 | 0.0 | 0.9 | 0.00 | 0.00 | 0.00 | 57 | 1011.2 |
| 20260504201753 | 81 | 171 | 1.7 | 1.7 | 0.00 | 0.00 | 0.00 | 57 | 1011.4 |
| 20260504201250 | 81 | 203 | 0.0 | 0.0 | 0.00 | 0.00 | 0.00 | 60 | 1011.4 |
| 20260504200748 | 82 | 136 | 3.5 | 5.2 | 0.00 | 0.00 | 0.00 | 58 | 1011.6 |
| 20260504200243 | 82 | 182 | 2.6 | 2.6 | 0.00 | 0.00 | 0.00 | 56 | 1011.4 |
| 20260504195740 | 80 | 199 | 0.9 | 1.7 | 0.00 | 0.00 | 0.00 | 58 | 1011.5 |
| 20260504195236 | 80 | 177 | 0.0 | 0.0 | 0.00 | 0.00 | 0.00 | 58 | 1011.7 |
| 20260504194733 | 81 | 179 | 0.0 | 0.9 | 0.00 | 0.00 | 0.00 | 58 | 1011.7 |
| 20260504194229 | 82 | 249 | 3.5 | 6.1 | 0.00 | 0.00 | 0.00 | 57 | 1011.7 |
| 20260504193726 | 80 | 146 | 0.9 | 0.9 | 0.00 | 0.00 | 0.00 | 59 | 1011.7 |
| 20260504193224 | 81 | 195 | 2.6 | 4.3 | 0.00 | 0.00 | 0.00 | 58 | 1011.8 |
| 20260504192722 | 82 | 147 | 0.9 | 0.9 | 0.00 | 0.00 | 0.00 | 57 | 1012.3 |
| 20260504192219 | 82 | 167 | 0.0 | 0.0 | 0.00 | 0.00 | 0.00 | 58 | 1012.3 |
| 20260504191718 | 83 | 69 | 0.9 | 1.7 | 0.00 | 0.00 | 0.00 | 56 | 1012.3 |
| 20260504191214 | 82 | 219 | 0.0 | 0.9 | 0.00 | 0.00 | 0.00 | 58 | 1012.3 |
| 20260504190710 | 84 | 198 | 1.7 | 1.7 | 0.00 | 0.00 | 0.00 | 56 | 1012.3 |
| 20260504190206 | 83 | 171 | 2.6 | 5.2 | 0.00 | 0.00 | 0.00 | 56 | 1012.6 |
| 20260504185703 | 82 | 174 | 0.0 | 0.0 | 0.00 | 0.00 | 0.00 | 57 | 1012.6 |
| 20260504185159 | 82 | 135 | 0.9 | 1.7 | 0.00 | 0.00 | 0.00 | 57 | 1012.9 |
| 20260504184655 | 83 | 199 | 1.7 | 1.7 | 0.00 | 0.00 | 0.00 | 55 | 1013.0 |
| 20260504184151 | 82 | 199 | 0.0 | 0.0 | 0.00 | 0.00 | 0.00 | 56 | 1012.9 |
| 20260504183648 | 82 | 150 | 0.0 | 0.9 | 0.00 | 0.00 | 0.00 | 56 | 1012.8 |
| 20260504183145 | 82 | 227 | 0.9 | 0.9 | 0.00 | 0.00 | 0.00 | 56 | 1012.6 |
| 20260504182643 | 81 | 175 | 0.0 | 0.0 | 0.00 | 0.00 | 0.00 | 57 | 1013.2 |
| 20260504182140 | 82 | 177 | 1.7 | 1.7 | 0.00 | 0.00 | 0.00 | 54 | 1013.0 |
| 20260504181637 | 81 | 169 | 0.0 | 0.0 | 0.00 | 0.00 | 0.00 | 56 | 1013.1 |
| 20260504181135 | 82 | 251 | 2.6 | 2.6 | 0.00 | 0.00 | 0.00 | 54 | 1013.0 |
| 20260504180634 | 82 | 168 | 0.0 | 0.0 | 0.00 | 0.00 | 0.00 | 55 | 1013.0 |
| 20260504180132 | 82 | 181 | 0.0 | 0.9 | 0.00 | 0.00 | 0.00 | 55 | 1013.3 |
| 20260504175629 | 82 | 164 | 0.0 | 0.0 | 0.00 | 0.00 | 0.00 | 54 | 1013.2 |
| 20260504175125 | 82 | 151 | 0.9 | 0.9 | 0.00 | 0.00 | 0.00 | 55 | 1013.2 |
| 20260504174624 | 82 | 185 | 0.9 | 1.7 | 0.00 | 0.00 | 0.00 | 55 | 1013.3 |
| 20260504174120 | 80 | 166 | 0.9 | 1.7 | 0.00 | 0.00 | 0.00 | 58 | 1013.6 |
| 20260504173617 | 81 | 240 | 2.6 | 5.2 | 0.00 | 0.00 | 0.00 | 57 | 1013.5 |
| 20260504173115 | 82 | 172 | 0.9 | 1.7 | 0.00 | 0.00 | 0.00 | 56 | 1013.5 |
| 20260504172611 | 80 | 160 | 0.0 | 0.9 | 0.00 | 0.00 | 0.00 | 56 | 1013.9 |
| 20260504172108 | 81 | 171 | 3.5 | 5.2 | 0.00 | 0.00 | 0.00 | 56 | 1013.6 |
| 20260504171604 | 79 | 184 | 1.7 | 2.6 | 0.00 | 0.00 | 0.00 | 57 | 1013.9 |
| 20260504171102 | 78 | 203 | 2.6 | 2.6 | 0.00 | 0.00 | 0.00 | 59 | 1014.0 |